Wind_Speed
9 9 9 8 9 9 9 9 8 8 8 9 9 10 10 12 13 14 14 14 15 14 13 13 11 11 11 11 11 11 11 11 10 10 10 9 8 7 6 6 4 4 2
9 10 10 10 10 11 11 11 11 10 11 11 11 11 12 12 13 15 15 15 16 15 14 13 13 12 11 11 11 10 10 10 9 9 9 8 7 6 6 5 4 3 2
10 11 11 11 12 12 13 13 13 13 13 13 13 13 14 14 14 14 15 15 16 16 15 15 14 13 12 11 10 10 10 9 9 9 8 8 7 6 5 4 3 2 1
11 12 12 13 13 14 14 15 15 15 15 15 15 15 16 16 15 15 16 16 16 16 16 16 15 14 13 11 10 10 10 9 8 8 7 7 7 5 5 4 2 2 1
12 13 14 15 15 15 16 16 17 17 17 18 18 18 18 18 17 17 17 17 17 17 16 16 16 15 14 12 11 11 10 9 7 7 6 6 6 5 4 3 2 2 1
13 14 15 16 17 17 18 19 19 19 20 20 20 20 20 20 20 20 19 19 19 18 17 17 17 16 15 14 12 11 10 9 7 7 6 5 4 3 3 2 2 2 2
15 16 16 17 18 18 19 20 20 21 21 21 22 22 22 22 22 21 21 21 21 21 20 19 18 17 16 15 13 12 11 10 8 7 5 4 4 3 2 2 2 2 2
16 17 17 17 18 18 19 20 21 22 23 23 23 23 24 24 23 24 23 22 22 21 22 21 20 19 17 16 15 14 12 11 9 7 6 5 4 3 2 2 2 2 2
17 18 19 19 19 20 20 21 22 24 24 24 25 24 24 25 26 26 26 25 24 24 23 23 21 20 19 18 17 16 14 12 10 9 7 6 4 3 3 3 3 3 3
18 19 20 20 20 21 21 22 23 24 25 26 26 26 26 26 26 27 27 27 27 26 25 24 23 22 21 20 19 18 16 14 12 11 9 8 6 4 4 4 4 4 4
18 19 20 20 21 21 21 22 23 24 25 26 27 28 29 29 29 28 28 29 29 28 27 26 25 25 23 23 21 19 18 16 14 13 11 10 8 6 5 5 5 5 5
18 18 19 19 20 20 20 21 21 22 23 25 27 28 29 30 30 30 30 30 29 29 29 28 27 26 25 23 23 22 20 18 17 15 13 12 10 8 7 6 6 6 6
17 18 18 18 18 18 18 19 20 21 22 23 25 27 28 28 29 30 31 31 30 30 30 29 28 27 27 25 23 23 22 21 19 18 16 14 12 11 9 8 7 7 7
17 17 18 18 17 17 17 18 18 19 20 21 22 23 25 27 27 27 28 30 30 31 30 30 29 28 27 26 25 25 23 22 22 20 19 17 15 13 12 11 10 9 8
17 17 18 18 17 17 17 17 18 18 18 19 20 21 22 23 25 26 26 28 30 31 30 30 29 29 28 27 26 26 26 24 23 22 21 19 17 16 14 13 12 11 10
16 17 18 18 18 17 17 18 18 18 17 18 18 19 20 21 23 24 25 26 27 29 30 30 30 30 29 29 27 27 27 26 25 24 23 21 20 19 17 16 14 13 12
17 18 19 19 19 17 17 17 18 17 17 17 17 17 18 19 20 22 23 25 26 27 28 29 30 30 30 30 29 28 28 28 27 25 24 23 22 21 20 19 17 16 14
17 18 19 19 18 17 17 17 17 17 17 17 17 17 17 18 19 20 21 23 25 26 27 28 29 29 30 30 30 30 29 29 29 27 25 25 24 23 22 21 20 18 17
17 18 18 19 19 18 18 18 18 18 18 18 17 17 17 17 17 18 19 21 22 24 25 26 27 28 29 30 30 30 30 29 29 29 28 26 25 25 24 24 23 21 19
17 18 19 19 20 19 19 19 19 19 18 18 18 17 17 16 16 16 17 18 20 21 23 24 25 27 28 29 29 30 31 30 30 29 29 28 27 27 26 25 25 24 22
16 18 19 20 21 20 20 20 20 19 19 19 18 17 16 15 14 14 14 15 16 18 20 22 23 25 27 27 28 29 30 31 31 30 30 30 30 29 28 27 26 26 25
16 17 19 20 21 22 21 21 20 20 20 19 18 17 16 15 14 13 13 13 14 16 18 20 21 23 25 27 27 28 28 30 31 31 32 32 31 31 31 30 29 28 26
16 17 19 20 21 22 22 21 21 21 20 20 19 17 16 15 13 12 11 11 12 13 15 18 20 21 23 25 27 27 28 29 30 32 33 34 33 32 32 32 32 30 28
16 17 19 20 21 22 22 22 22 22 22 21 20 18 16 15 13 11 10 10 10 11 13 15 18 20 22 23 26 26 27 29 30 31 32 33 34 33 32 32 32 31 30
15 17 19 20 21 22 22 23 22 22 22 22 21 19 17 15 13 12 10 10 9 9 10 13 15 17 20 22 24 25 25 28 29 29 31 33 33 33 33 32 33 32 32
15 16 18 20 21 22 23 23 23 23 23 22 21 20 18 16 14 12 10 10 9 8 9 9 11 15 17 20 21 23 24 25 26 28 30 31 32 32 32 32 33 33 33
Wind_Direction
305 304 292 290 294 292 289 285 278 274 268 262 258 257 255 252 253 252 250 250 249 251 257 261 264 273 280 288 296 301 305 310 314 321 323 323 323 323 323 324 322 318 323
298 297 289 290 290 287 284 283 281 276 274 270 264 261 260 258 256 254 255 254 252 251 254 258 263 269 277 283 289 295 300 307 311 317 321 321 321 322 320 319 317 317 331
298 296 289 290 292 290 284 279 277 275 275 273 269 266 265 262 258 255 256 255 252 252 252 257 263 266 272 277 283 289 294 300 305 311 316 316 315 317 317 314 307 303 309
296 293 291 290 289 289 285 281 279 275 274 272 270 268 265 264 262 258 258 256 255 254 255 258 259 262 268 272 277 283 287 293 299 305 312 313 313 313 308 306 296 292 283
299 296 294 291 287 284 282 281 279 276 275 273 271 269 267 265 263 261 260 258 257 256 257 258 258 260 264 267 271 276 279 285 292 300 309 312 313 312 304 297 273 270 239
301 299 297 292 286 282 280 279 279 278 277 275 271 267 266 265 263 261 260 259 259 258 257 258 260 260 261 262 264 268 271 275 281 290 300 307 312 314 306 287 262 244 211
307 303 300 296 291 287 283 280 278 276 275 274 271 267 265 264 262 260 258 258 259 258 255 256 258 259 259 257 256 259 263 266 269 276 283 291 302 306 296 278 250 226 206
308 306 302 298 295 291 286 280 277 275 273 273 271 267 265 264 263 261 258 257 258 259 257 256 256 256 256 255 253 254 255 257 259 263 265 271 283 291 277 257 231 217 208
309 307 305 301 297 291 286 281 276 274 272 271 270 268 265 264 262 261 258 256 257 258 258 255 254 254 253 252 251 248 249 250 252 253 254 255 263 271 262 239 224 215 211
310 308 305 302 298 295 291 285 279 275 273 272 270 269 267 266 264 261 259 258 258 257 257 256 253 252 252 251 247 244 243 245 246 246 247 246 248 251 246 231 223 216 213
316 313 310 307 304 299 294 289 284 279 276 273 270 268 267 266 265 262 260 260 258 256 255 255 253 251 251 249 243 240 237 240 241 240 241 240 240 240 235 229 225 218 211
321 317 314 311 307 304 300 295 290 285 280 276 272 269 267 265 264 263 260 259 258 255 253 253 252 249 248 247 242 236 234 234 236 236 236 235 235 234 230 228 223 214 207
326 325 324 320 315 310 306 301 296 291 286 280 276 272 269 266 265 263 260 259 258 254 252 253 252 248 246 245 243 234 231 232 233 233 232 231 231 231 228 226 222 215 208
334 335 334 331 326 320 315 310 305 300 294 286 281 276 273 269 265 262 260 258 257 254 252 251 251 248 245 244 242 237 232 232 233 231 229 229 230 229 226 224 222 216 211
342 342 341 339 334 329 324 320 315 309 303 296 288 282 278 273 269 264 261 258 255 254 250 248 248 245 243 243 240 237 234 231 232 230 229 229 229 227 224 222 221 217 213
348 348 346 344 339 333 329 327 323 317 311 305 297 289 283 278 272 267 261 258 255 253 250 247 245 243 242 240 238 237 235 232 232 231 229 228 228 226 223 222 220 219 218
352 350 348 346 343 339 335 333 330 326 321 315 307 297 289 284 278 271 264 259 256 254 250 247 244 241 239 238 236 235 235 233 230 230 229 228 228 227 224 223 221 219 219
355 353 352 351 348 345 341 337 335 331 326 320 314 306 298 290 282 275 267 261 257 255 253 250 245 240 237 237 235 233 232 231 229 229 228 227 227 226 224 223 222 221 220
359 358 357 356 354 350 346 342 339 336 331 325 320 312 306 297 287 278 271 264 259 255 253 251 246 242 237 234 233 232 230 228 227 226 227 226 227 226 224 224 222 222 221
2 1 1 360 358 355 351 347 344 340 336 332 327 320 314 307 295 284 276 269 262 256 252 249 244 239 237 233 232 230 228 227 226 226 227 227 227 227 225 225 225 223 223
6 6 6 4 3 1 357 353 349 346 343 338 334 328 322 317 306 291 282 272 263 258 253 248 244 238 235 232 229 228 227 227 226 226 226 226 226 227 226 225 225 223 223
9 9 8 7 6 5 2 359 355 352 349 346 342 337 331 324 314 300 290 279 269 260 253 247 242 236 234 231 229 229 227 226 228 227 226 228 228 227 226 226 226 224 224
14 12 10 9 8 7 5 3 0 358 356 354 351 346 341 335 325 313 299 289 278 266 254 246 241 234 231 230 229 229 229 229 229 228 228 228 229 229 227 227 227 226 225
16 14 12 11 10 8 7 5 3 1 360 358 356 353 349 344 337 327 313 301 292 275 260 250 243 236 231 230 229 229 230 229 230 230 229 228 229 228 227 227 227 227 227
15 14 12 11 10 10 8 6 4 3 2 1 0 358 354 350 344 338 326 314 302 289 273 257 247 238 232 230 230 229 232 231 231 230 230 230 229 228 227 228 229 229 228
15 13 11 11 11 10 9 7 6 6 5 5 4 3 359 355 350 345 337 330 318 303 284 265 247 237 232 233 233 234 234 234 233 231 231 231 230 228 228 229 231 231 231
Height
5876 5875 5875 5874 5874 5873 5873 5872 5872 5871 5871 5871 5871 5872 5872 5872 5873 5873 5874 5875 5876 5877 5878 5878 5879 5880 5880 5881 5881 5881 5880 5880 5880 5879 5879 5878 5878 5877 5877 5877 5876 5876 5876
5875 5874 5873 5872 5872 5871 5871 5870 5870 5869 5869 5869 5869 5869 5870 5870 5870 5871 5872 5872 5873 5874 5875 5876 5877 5878 5878 5879 5879 5879 5879 5879 5878 5878 5878 5877 5877 5877 5876 5876 5876 5876 5876
5873 5872 5871 5870 5869 5869 5868 5868 5867 5867 5867 5867 5867 5867 5867 5867 5868 5868 5869 5870 5870 5871 5872 5873 5874 5875 5876 5876 5877 5877 5877 5877 5877 5877 5876 5876 5876 5876 5876 5876 5876 5876 5876
5871 5870 5869 5868 5867 5866 5866 5865 5865 5864 5864 5864 5864 5864 5864 5865 5865 5865 5866 5867 5867 5868 5870 5871 5872 5873 5874 5874 5875 5875 5875 5876 5876 5876 5875 5875 5875 5875 5875 5875 5875 5875 5875
5868 5867 5866 5865 5864 5864 5863 5862 5861 5861 5861 5861 5860 5861 5861 5861 5862 5862 5863 5864 5864 5865 5866 5867 5869 5870 5871 5872 5872 5873 5874 5874 5874 5874 5874 5874 5874 5874 5874 5874 5875 5875 5875
5866 5865 5864 5862 5861 5860 5860 5859 5858 5857 5857 5857 5856 5857 5857 5857 5858 5858 5859 5860 5861 5862 5863 5864 5865 5867 5868 5869 5870 5871 5872 5872 5873 5873 5873 5873 5873 5873 5873 5874 5874 5874 5875
5863 5862 5860 5859 5858 5857 5856 5855 5854 5854 5853 5852 5852 5852 5852 5853 5853 5854 5855 5856 5857 5858 5859 5860 5861 5863 5864 5866 5867 5868 5869 5870 5871 5871 5872 5872 5872 5872 5873 5873 5873 5874 5874
5860 5859 5857 5855 5854 5853 5851 5850 5850 5849 5848 5848 5847 5847 5848 5848 5849 5849 5850 5851 5852 5853 5855 5856 5858 5859 5861 5863 5864 5865 5867 5868 5869 5870 5870 5871 5871 5871 5872 5872 5873 5874 5874
5857 5855 5854 5852 5850 5848 5847 5846 5845 5844 5844 5843 5843 5842 5842 5843 5844 5844 5845 5846 5847 5849 5850 5852 5853 5855 5857 5859 5861 5862 5864 5865 5867 5868 5869 5869 5870 5870 5871 5872 5872 5873 5874
5854 5852 5850 5848 5846 5844 5842 5841 5839 5839 5838 5838 5837 5837 5837 5837 5838 5839 5840 5841 5842 5843 5845 5846 5848 5851 5852 5855 5857 5859 5861 5862 5864 5865 5866 5868 5868 5869 5870 5871 5872 5872 5873
5851 5848 5846 5844 5841 5839 5837 5836 5834 5833 5832 5832 5831 5831 5831 5832 5832 5833 5834 5835 5836 5838 5839 5841 5844 5846 5848 5850 5852 5854 5857 5859 5861 5863 5864 5865 5867 5867 5868 5870 5871 5872 5872
5848 5846 5843 5840 5837 5835 5833 5831 5829 5828 5827 5826 5825 5825 5825 5825 5826 5826 5827 5829 5830 5832 5833 5835 5838 5840 5843 5845 5847 5850 5852 5855 5857 5859 5861 5863 5864 5866 5867 5868 5869 5870 5872
5846 5843 5840 5837 5834 5831 5829 5827 5825 5823 5821 5820 5819 5819 5819 5819 5819 5820 5820 5822 5823 5825 5827 5830 5832 5834 5837 5840 5842 5845 5848 5851 5853 5856 5858 5860 5862 5863 5865 5866 5868 5869 5870
5843 5840 5837 5834 5831 5828 5825 5823 5820 5818 5816 5815 5814 5813 5812 5812 5812 5813 5814 5815 5816 5818 5821 5823 5826 5828 5831 5834 5837 5840 5843 5846 5849 5852 5854 5857 5859 5861 5863 5864 5866 5867 5869
5841 5837 5834 5831 5828 5825 5822 5819 5816 5814 5812 5810 5808 5807 5806 5806 5806 5806 5807 5808 5810 5811 5814 5816 5819 5822 5825 5828 5831 5835 5838 5841 5844 5847 5850 5853 5856 5858 5860 5862 5864 5865 5867
5839 5835 5832 5828 5825 5822 5819 5816 5813 5810 5807 5805 5803 5802 5801 5800 5799 5799 5800 5801 5803 5804 5806 5809 5812 5815 5818 5822 5825 5829 5833 5836 5839 5842 5846 5849 5852 5854 5856 5859 5861 5863 5865
5837 5833 5830 5826 5823 5819 5816 5813 5810 5806 5804 5801 5799 5797 5795 5794 5793 5793 5793 5794 5795 5797 5799 5802 5805 5808 5812 5815 5819 5823 5827 5830 5834 5837 5840 5844 5847 5850 5853 5855 5858 5860 5862
5835 5832 5828 5824 5821 5817 5814 5810 5807 5804 5800 5798 5795 5792 5790 5789 5788 5787 5787 5787 5788 5790 5792 5794 5797 5800 5804 5808 5812 5816 5820 5824 5828 5832 5835 5839 5842 5846 5849 5852 5854 5857 5859
5834 5831 5827 5823 5819 5815 5812 5808 5804 5801 5798 5794 5791 5788 5786 5784 5782 5781 5781 5781 5782 5783 5785 5787 5790 5793 5797 5801 5805 5809 5814 5818 5822 5826 5830 5834 5837 5841 5844 5847 5850 5853 5856
5833 5830 5826 5822 5818 5814 5810 5806 5802 5798 5795 5791 5788 5784 5782 5779 5777 5776 5776 5776 5776 5777 5779 5781 5783 5787 5790 5794 5798 5803 5807 5812 5816 5820 5824 5828 5832 5836 5839 5843 5846 5849 5852
5832 5829 5825 5821 5817 5812 5808 5804 5800 5796 5792 5788 5785 5781 5778 5775 5773 5772 5771 5770 5771 5772 5773 5775 5777 5780 5784 5788 5792 5796 5800 5805 5809 5813 5818 5822 5826 5830 5834 5837 5841 5844 5847
5832 5828 5824 5820 5816 5812 5807 5803 5799 5795 5791 5786 5782 5779 5775 5772 5770 5768 5767 5766 5766 5767 5768 5770 5772 5775 5778 5782 5786 5790 5794 5799 5803 5807 5811 5816 5820 5824 5828 5831 5835 5839 5842
5831 5828 5824 5820 5816 5811 5807 5802 5798 5794 5789 5785 5781 5777 5773 5770 5767 5765 5763 5763 5762 5762 5763 5765 5766 5769 5772 5776 5780 5784 5788 5792 5796 5801 5805 5809 5813 5817 5821 5825 5830 5833 5837
5831 5827 5824 5820 5816 5811 5807 5802 5798 5793 5789 5784 5779 5775 5772 5768 5765 5763 5761 5760 5759 5759 5759 5760 5762 5764 5767 5771 5775 5779 5782 5786 5790 5794 5798 5802 5807 5811 5815 5819 5823 5827 5831
5831 5827 5824 5820 5816 5812 5807 5802 5798 5793 5788 5784 5779 5774 5770 5767 5764 5761 5759 5757 5756 5756 5756 5756 5758 5760 5763 5766 5769 5773 5776 5780 5783 5787 5792 5796 5800 5804 5809 5813 5817 5821 5825
5831 5828 5824 5820 5816 5812 5808 5803 5798 5793 5788 5784 5779 5774 5770 5766 5763 5760 5758 5756 5755 5754 5753 5753 5754 5756 5759 5762 5765 5768 5771 5774 5777 5781 5785 5789 5793 5798 5802 5806 5811 5815 5819